Location: Sungai Dangang
(2.7500°N, 113.8333°E)
Time: 19:17:57
(UTC+00:00)

deb Ariane - Pass Details

Date: 16 May 2021
Orbit: 439 x 35352 km, 6.5° (Epoch: 20 June)

Event Time Altitude Azimuth Distance (km) Brightness Sun altitude
Exits shadow 20:41:56 57° 23° (NNE) 515 2.8 -22.3°
Drops below altitude 10° 20:44:38 10° 77° (ENE) 1,715 6.5 -21.7°
Sets 20:47:17 0° 81° (E) 3,143 8.1 -21.1°
